Location: Deep South Regional Star Gaze
(30.9929°N, 90.9586°W)
Time: 06:44:54
(UTC-05:00)

Daily predictions for brighter satellites

Satellite Brightness Start Highest point End
(mag) Time Altitude Azimuth Time Altitude Azimuth Time Altitude Azimuth
Atlas Centaur 2 3.7 18:56:43 10° W 19:04:54 56° SSW 19:13:05 10° SE
GPS 2-04 Rocket1 2.7 19:07:31 10° W 19:10:54 59° NNW 19:14:22 10° ENE
Meteor 1-28 Rocket 3.8 19:07:33 10° NNE 19:10:58 34° E 19:14:21 10° SSE
SEDSat Delta rocket 4.1 19:06:04 10° W 19:12:29 87° N 19:19:20 10° E
Cosmos 2278 Rocket 3.7 19:08:07 10° NW 19:13:25 43° WSW 19:18:43 10° S
COSMOS 2441 4.3 19:09:28 10° SSE 19:14:17 72° ENE 19:19:07 10° N
Cosmos 1805 3.6 19:15:24 10° SSE 19:19:08 44° E 19:22:54 10° NNE
Okean 3 Rocket 3.9 19:15:57 10° N 19:20:30 77° W 19:25:02 10° S
ALOS 4.1 19:20:45 10° E 19:22:27 12° ENE 19:24:09 10° NE
Cosmos 1452 Rocket 3.9 19:17:45 10° N 19:22:44 43° ENE 19:27:43 10° SE
Cosmos 2297 3.9 19:17:39 10° NNW 19:23:19 81° WSW 19:28:55 10° SSE
Cosmos 1943 3.9 19:20:38 10° SSE 19:25:29 30° ESE 19:30:20 10° NE
Resurs 01 Rocket 2.7 19:23:53 10° SE 19:27:25 24° ENE 19:30:57 10° NNE
CENTAUR R/B 2.7 19:22:00 10° S 19:27:31 46° ESE 19:33:37 10° NE
SL-19 R/B 4.3 19:23:01 10° SSE 19:28:33 66° ENE 19:34:23 10° N
Cosmos 2369 Rocket 3.9 19:26:14 10° NNE 19:28:59 14° ENE 19:31:02 11° E
Gbstr 26 Del rocket 3.0 19:25:38 10° SW 19:29:42 85° SE 19:34:36 10° NE
Cosmos 1603 3.8 19:26:53 10° SSW 19:32:36 87° WNW 19:38:23 10° NNE
Cosmos 1953 2.2 19:28:48 10° S 19:32:45 72° E 19:36:43 10° N
Helios 1B rocket 3.0 19:29:03 10° NNE 19:32:51 36° E 19:36:39 10° SSE
ISS -1.6 19:30:17 10° WSW 19:33:13 31° NW 19:36:10 10° NNE
Meteor 2-12 Rocket 4.5 19:28:20 10° S 19:34:23 61° E 19:40:26 10° NNE
Delta 168 3.9 19:31:31 10° WSW 19:35:15 42° S 19:39:37 14° ESE
Cosmos 1733 4.4 19:34:39 10° SE 19:37:35 21° E 19:40:31 10° NE
COSMO-SKYMED 1 4.4 19:37:38 10° N 19:41:35 35° WNW 19:45:30 10° SW
Cosmos 1470 3.4 19:41:12 10° SSE 19:44:41 32° E 19:48:10 10° NNE
BREEZE-M TANK 2.8 19:38:03 10° NW 19:46:18 90° NE 19:48:39 18° SE
In-Cosmos 22 4.2 19:42:12 10° N 19:47:59 80° E 19:53:40 10° S
ATLAS CENTAUR R/B 4.3 19:47:19 10° WNW 19:49:25 14° WSW 19:51:27 10° SW
Cosmos 1674 3.7 19:47:28 10° NNE 19:50:46 26° E 19:51:28 24° E
Nadezhda 4 Rocket 4.2 19:44:48 10° N 19:50:49 48° E 19:56:44 10° SSE
Spot 2 Rocket 3.7 19:46:24 10° SSE 19:51:13 48° ENE 19:56:03 10° N
Cosmos 1076 Rocket 4.0 19:49:20 10° NNW 19:53:37 63° W 19:57:55 10° S
BREEZE-M DEB (TANK) 4.4 19:32:17 10° NW 19:54:10 79° NE 19:58:16 19° SE
ASTRO E2 2.9 19:50:58 10° W 19:54:59 63° SSW 19:57:04 26° ESE
Cosmos 1048 Rocket 4.0 19:49:55 10° SSW 19:55:14 89° WNW 20:00:31 10° NNE
Cosmos-2242 3.6 19:53:35 10° SSW 19:57:53 62° W 20:02:14 10° N
ATLAS 5 CENTAUR R/B 4.5 19:55:39 10° W 19:58:59 18° NW 20:02:29 10° N
Cosmos 1766 Rocket 3.9 19:54:53 10° NNW 19:59:12 68° W 20:03:29 10° S
Cosmos 1092 Rocket 4.3 19:55:01 10° N 20:00:48 41° E 20:06:31 10° SSE
Cosmos 1269 Rocket 4.4 19:55:35 10° SSW 20:00:48 66° WNW 20:06:04 10° N
SJ-6B 3.3 19:56:54 10° S 20:00:49 65° W 20:04:50 10° NNW
HJ-1C 3.3 19:58:45 14° SSE 20:01:31 62° ENE 20:04:51 10° N
FREGAT/IRIS 2.9 19:59:47 10° S 20:02:50 68° W 20:05:54 10° NNW
Cosmos 1544 3.8 20:02:21 10° SSW 20:06:01 57° W 20:09:43 10° N
Cosmos 1174 4.2 20:01:50 10° SSW 20:07:04 79° WNW 20:11:11 10° NNE
Cosmos 158 Rocket 3.7 20:02:17 10° S 20:07:07 67° ESE 20:11:57 10° NNE
Milstar 3 4.4 19:58:08 10° W 20:07:55 75° S 20:20:49 24° ESE
Cosmos 1346 2.9 20:05:45 10° N 20:08:44 88° WSW 20:09:55 33° S
Cosmos 1634 Rocket 4.1 20:05:08 10° SSE 20:11:08 51° E 20:17:07 10° NNE
FengYun 1-2 T 4.2 20:05:58 10° SSE 20:11:22 60° ENE 20:16:46 10° N
METEOR-M 4.2 20:10:36 10° S 20:15:57 80° WSW 20:21:19 10° NNW
USA 215 3.5 20:11:56 10° NE 20:18:26 70° NW 20:24:54 10° SW
OAO 3 Rocket 3.1 20:18:53 10° WNW 20:23:38 72° NNE 20:24:39 53° ENE
Cosmos 1842 Rocket 3.9 20:22:28 10° SSW 20:26:45 63° W 20:31:04 10° N
SeaSat 1 3.9 20:33:03 23° S 20:33:03 23° S 20:34:59 10° S
Cosmos 1500 Rocket 3.5 20:26:51 10° N 20:31:19 89° E 20:32:52 41° S
Helios 1A 3.5 20:30:32 15° S 20:33:58 59° WSW 20:38:08 10° NNW
FENGYUN 3A 3.5 20:32:29 37° SSE 20:34:37 74° ENE 20:40:00 10° N
GPS 2-04 Rocket1 4.4 20:47:41 10° WNW 20:49:38 26° NW 20:49:38 26° NW
SEDSat Delta rocket 4.1 20:52:39 10° W 20:59:16 65° SSW 20:59:50 63° S
ALOS 2.9 20:58:48 49° SW 20:59:22 53° W 21:03:56 10° NNW
Resurs 01 Rocket 3.9 21:00:13 10° SSW 21:03:44 23° W 21:07:18 10° NW
Cosmos 1627 Rocket 4.4 20:57:51 10° N 21:04:06 89° ENE 21:04:23 83° S
Cosmos 2251 Rocket 4.0 20:59:46 10° SSW 21:04:53 57° WNW 21:10:02 10° N
Cosmos 1943 Rocket 3.8 21:00:28 10° N 21:02:43 22° NNE 21:02:43 22° NNE
Meteosat 1 Rocket2 4.1 21:03:55 10° W 21:09:24 53° SW 21:09:24 53° SW
Mugunghwa Rocket 4.5 21:04:45 10° WSW 21:10:51 54° S 21:10:51 54° S
Cosmos 2369 Rocket 2.5 21:07:50 10° NNW 21:12:53 64° WNW 21:12:53 64° WNW
BREEZE-M DEB (TANK) 4.2 20:55:17 10° NW 21:16:29 63° SW 21:17:48 54° S
CENTAUR R/B 4.4 21:13:28 10° WSW 21:18:24 25° NW 21:23:45 10° N
Cosmos 839 Rocket 4.2 21:13:42 10° NNW 21:20:01 72° NW 21:20:01 72° NW
